Regional Weather Roundup
Issued by NWS

Home | Current Version | Previous Version | Graphics & Text | Print | Product List | Glossary On
Versions: 1 2 3 4 5 6 7 8 9 10 11 12 13 14 15 16 17 18 19 20 21 22 23 24 25 26 27 28 29 30 31 32 33 34 35 36 37 38 39 40 41 42 43 44 45 46 47 48 49 50
000
ASUS43 KIND 050309
RWRIN

WEATHER ROUNDUP FOR INDIANA
NATIONAL WEATHER SERVICE INDIANAPOLIS IN
1000 PM EST WED MAR 04 2015

NOTE: "FAIR" INDICATES FEW OR NO CLOUDS BELOW 12,000 FEET WITH NO
SIGNIFICANT WEATHER AND/OR OBSTRUCTIONS TO VISIBILITY.

* - STATION DOES NOT REPORT WEATHER SUCH AS PRECIPITATION OR FOG.

+ - STATION NOT QUALITY CONTROLLED BY THE NATIONAL WEATHER SERVICE.
    USE DATA WITH CAUTION...ESPECIALLY DEWPOINT AND RELATIVE
    HUMIDITY OBSERVATIONS.

INZ001>003-010>013-019-020-050400-
NORTHWEST INDIANA

CITY           SKY/WX    TMP DP  RH WIND       PRES   REMARKS
GARY /AIRPORT/ MOCLDY    19   1  45 W16       30.32R WCI   5
KNOX *+          N/A     19  -6  32 NW7       30.28R WCI  10
MONTICELLO +   CLOUDY    18  10  71 NW12      30.27R WCI   6
VALPARAISO     NOT AVBL

$$

LMZ046-743>745-050400-
SOUTHERN LAKE MICHIGAN

STATION/POSITION TIME  TEMP WIND        PRES
                       AIR  DIR/SP/G
                 (UTC) (F)  (DEG/KT/KT) (MB)
MICHIGAN CITY    0300   18  280/ 10/ 12   N/A

$$

INZ004-005-014>016-021>024-050400-
NORTH CENTRAL INDIANA

CITY           SKY/WX    TMP DP  RH WIND       PRES   REMARKS
GOSHEN         CLOUDY    18   6  59 NW9       30.24R WCI   7
PERU/GRISSOM   CLOUDY    19   7  58 NW9       30.25R WCI   8
SOUTH BEND     CLOUDY    19   5  54 NW7       30.27R WCI  10
WARSAW +       CLOUDY    19   9  63 NW5       30.25R WCI  13

$$

INZ006>009-017-018-025>027-050400-
NORTHEAST INDIANA

CITY           SKY/WX    TMP DP  RH WIND       PRES   REMARKS
ANGOLA *+      CLEAR     16   5  62 NW9       30.18R WCI   4
AUBURN +       CLOUDY    19   5  53 NW10G17   30.23R WCI   8
FORT WAYNE     CLOUDY    19   6  57 NW10      30.24R WCI   7

$$

INZ028-029-035-036-043>045-051>053-050400-
WEST CENTRAL INDIANA

CITY           SKY/WX    TMP DP  RH WIND       PRES   REMARKS
CRAWFORDSVL +  CLOUDY    16   5  62 NW10      30.27R WCI   3
GREENCASTLE +  CLOUDY    19   5  53 NW10G17   30.28R WCI   8
LAFAYETTE      CLOUDY    17   8  67 NW16G22   30.30R WCI   2
TERRE HAUTE    CLOUDY    18   7  62 N10       30.31R WCI   6

$$

INZ030>032-037>040-046>048-054>057-064-065-050400-
CENTRAL INDIANA

CITY           SKY/WX    TMP DP  RH WIND       PRES   REMARKS
CP ATTERBURY + CLOUDY    23  14  68 NW9       30.25R WCI  13
COLUMBUS       CLOUDY    21  14  73 NW14      30.24R WCI   8
FRANKFORT +    CLOUDY    19  11  72 W9        30.28R WCI   7
GREENWOOD *+   CLOUDY    21  10  63 NW8       30.24  WCI  12
INDIANAPOLIS   CLOUDY    20  10  65 NW12      30.24R WCI   8
-EAGLE CREEK   CLOUDY    19  11  70 NW9       30.25R WCI   8
KOKOMO *+        N/A    N/A N/A N/A MISG        N/A
MT COMFORT *+  CLOUDY    21   9  58 N12       30.25R WCI   9
SHELBYVILLE    CLOUDY    23  14  68 N14       30.23R WCI  11
ZIONSVILLE +   CLOUDY    19  11  69 NW8       30.26R WCI   9

$$

INZ033-034-041-042-049-050-058-059-050400-
EAST CENTRAL INDIANA

CITY           SKY/WX    TMP DP  RH WIND       PRES   REMARKS
MUNCIE         CLOUDY    20   9  62 N14       30.23R WCI   7

$$

INZ060-061-067>069-081>083-085>088-050400-
SOUTHWEST INDIANA

CITY           SKY/WX    TMP DP  RH WIND       PRES   REMARKS
EVANSVILLE     HAZE      20  15  81 N10G18    30.30R VSB 3/4 WCI   9
HUNTINGBURG *+ CLOUDY    18  12  79 N13       30.27R WCI   4

$$

INZ062-063-066-070>080-084-089>092-050400-
SOUTH CENTRAL AND SOUTHEAST INDIANA

CITY           SKY/WX    TMP DP  RH WIND       PRES   REMARKS
BEDFORD +      CLOUDY    21  10  63 N9        30.24R WCI  11
BLOOMINGTON    CLOUDY    20  10  65 N8        30.25R WCI  10
NORTH VERNON + LGT SNOW  23  19  86 NW9       30.22R WCI  13
SEYMOUR +      FLURRIES  23  18  80 N13       30.24R WCI  11

$$




USA.gov is the U.S. government's official web portal to all federal, state and local government web resources and services.